"Pseudo-MPEC" for P21DMn6

Created 2023 Mar 26 9:22:15 UT using Find_Orb

Click here for an explanation of pseudo-MPECs

 
 Astrometry: 
     P21DMn6* C2023 03 24Fcs]]=xiw$1^u(Oi#jpI`[`iljTi7q=NTZLx1,VBEQ$tu'EP4,1tF52
     P21DMn6  C2023 03 24HTfmb0^ZM2ha8fLECnjNsIT6o+JUpy#%?Jg).!V@jq30CX-l\?t_F52
     P21DMn6  C2023 03 24s0TX4/)3g.S7O6Qmtu-_?m.AOMo4YCYn,[M$Astrometryh?S%?^F52
     P21DMn6  C2023 03 24L93j!s`@fnou1]vk/9gKN:O=Y\vRAHFTlGMSgm!)bwoFM:\-ma[bF52
     P21DMn6  C2023 03 246xuLtNmvNiu)vwwF9No_!/f73xwuhPq;$ybU'xHtryKredacted;F52
     P21DMn6 3C2023 03 25r8gxUvmlQED'4tR)R+E-2d+4f%`eclick+YW+F/`wM-iYS3`Aa8JT14
     P21DMn6 3C2023 03 25:CI!U3-CSf)qPVc_=`3J)lW=,x$DrALtP_here'MmG0e?M;O6!lPT14
     P21DMn6 3C2023 03 25hqYZ(Pf'/d)'_U!5o\bb^r'#ECR5Dy?for2JyFR)f38*=tiLu$u2T14
     P21DMn6 KC2023 03 26f7p8?M8bYM`2mL\FLi)8BBs1kiO#/AMG`T_explanation4gF4h]H21
     P21DMn6 KC2023 03 264:=,\_(VUm0G\_$k,l@`,vts8uaZ2ON8l4t,*a/:bkTA64M)/g5_H21

Station data:
(F52) Pan-STARRS 2, Haleakala  (N20.707382 W156.255910)  US/Hawaii.
   Observers J. Bulger, T. Dukes, T. Lowe, A. Schultz, M. Willman. Measurers
   K. Chambers, S. Chastel, T. de Boer, L. Denneau, J. Fairlamb, H.
   Flewelling, M. Huber, C.-C. Lin, E. Magnier, Y. Ramanjooloo, R. Wainscoat,
   R. Weryk. 1.8-m Ritchey-Chrétien + CCD.
(H21) Astronomical Research Observatory, Westfield  (N39.483054 W87.968270)
   US/Illinois.  Observer R. Holmes. Measurers S. Foglia, L. Buzzi, T.
   Linder, R. Holmes. 0.76-m f/3.0 astrograph + CCD0.81-m f/4.0 astrograph +
   CCD0.61-m f/4.5 astrograph + CCD0.40-m f/5.32 astrograph + CCD.
(T14) Mauna Kea-UH/Tholen NEO Follow-Up (CFHT)  (N19.825252 W155.468876)
   US/Hawaii. 3.6-m Canada-France-Hawaii Telescope.

Orbital elements:  P21DMn6
   Perihelion 2023 Apr 28.89415 +/- 1.61 TT = 21:27:35 (JD 2460063.39415)
Epoch 2023 Mar 26.0 TT = JDT 2460029.5   Earth MOID: 0.6461      AutoNEOCP
M 353.81425941 +/- 0.6              (J2000 ecliptic)
n   0.18250169 +/- 0.011            Peri.   76.44675 +/- 1.5
a   3.07816185 +/- 0.124            Node   145.96132 +/- 0.58
e   0.5154232 +/- 0.0161            Incl.   21.56022 +/- 0.29
P   5.40                   H 20.23  G  0.15   U  9.7
q 1.49160570 +/- 0.0105    Q 4.66471801 +/- 0.237
From 10 observations 2023 Mar. 24-26 (43.9 hr); mean residual 0".13
Residuals in arcseconds: 
230324 F52  .16-  .42-    230324 F52  .01-  .21+    230326 H21  .04-  .21+    
230324 F52  .04-  .05+    230325 T14  .03-  .02-    230326 H21  .06-  .01-    
230324 F52  .09+  .16+    230325 T14  .01+  .03-    
230324 F52  .12+  .09+    230325 T14  .03+  .03+    

Ephemerides (geocentric):
Date (UTC) HH   RA             Dec           delta  r     elong  mag " sig PA
---- --------  ------------   ------------  ------ ------ -----  --- --------
2023 03 26 09  15 33 12.626   +22 32 05.74  .70793 1.5293 126.6 21.8 .345 132
2023 03 26 10  15 33 16.928   +22 33 11.70  .70779 1.5292 126.6 21.8 .359 133
2023 03 26 11  15 33 21.228   +22 34 17.64  .70765 1.5291 126.6 21.8 .373 134
2023 03 26 12  15 33 25.524   +22 35 23.57  .70751 1.5291 126.7 21.8 .387 135
2023 03 26 13  15 33 29.818   +22 36 29.49  .70738 1.5290 126.7 21.8 .402 136
2023 03 26 14  15 33 34.108   +22 37 35.39  .70724 1.5289 126.7 21.8 .417 137
2023 03 26 15  15 33 38.396   +22 38 41.29  .70710 1.5288 126.7 21.8 .432 138
2023 03 26 16  15 33 42.680   +22 39 47.16  .70696 1.5287 126.7 21.8 .448 139
2023 03 26 17  15 33 46.961   +22 40 53.03  .70683 1.5286 126.7 21.8 .465 139
2023 03 26 18  15 33 51.239   +22 41 58.88  .70669 1.5285 126.7 21.8 .482 140
2023 03 26 19  15 33 55.515   +22 43 04.71  .70655 1.5284 126.7 21.8 .499 141
2023 03 26 20  15 33 59.787   +22 44 10.53  .70642 1.5283 126.7 21.8 .516 142
2023 03 26 21  15 34 04.056   +22 45 16.34  .70628 1.5282 126.7 21.8 .534 142
2023 03 26 22  15 34 08.321   +22 46 22.13  .70614 1.5281 126.7 21.8 .553 143
2023 03 26 23  15 34 12.584   +22 47 27.91  .70601 1.5281 126.7 21.8 .572 144
2023 03 27 00  15 34 16.844   +22 48 33.68  .70587 1.5280 126.7 21.8 .591 144
2023 03 27 01  15 34 21.101   +22 49 39.43  .70574 1.5279 126.7 21.8 .610 145
2023 03 27 02  15 34 25.354   +22 50 45.17  .70560 1.5278 126.7 21.8 .630 145
2023 03 27 03  15 34 29.605   +22 51 50.89  .70547 1.5277 126.7 21.8 .651 146
2023 03 27 04  15 34 33.852   +22 52 56.59  .70533 1.5276 126.7 21.8 .672 146
2023 03 27 05  15 34 38.096   +22 54 02.28  .70520 1.5275 126.7 21.8 .693 147
2023 03 27 06  15 34 42.338   +22 55 07.96  .70506 1.5274 126.7 21.8 .715 147
2023 03 27 07  15 34 46.576   +22 56 13.62  .70493 1.5273 126.7 21.8 .737 148
2023 03 27 08  15 34 50.811   +22 57 19.27  .70480 1.5272 126.7 21.8 .759 148
2023 03 27 09  15 34 55.043   +22 58 24.90  .70466 1.5272 126.7 21.8 .782 149
2023 03 27 10  15 34 59.271   +22 59 30.51  .70453 1.5271 126.7 21.8 .805 149
2023 03 27 11  15 35 03.497   +23 00 36.11  .70440 1.5270 126.7 21.8 .829 150
2023 03 27 12  15 35 07.720   +23 01 41.70  .70427 1.5269 126.7 21.8 .853 150
2023 03 27 13  15 35 11.939   +23 02 47.27  .70413 1.5268 126.7 21.8 .878 151
2023 03 27 14  15 35 16.155   +23 03 52.82  .70400 1.5267 126.7 21.8 .902 151
2023 03 27 15  15 35 20.368   +23 04 58.36  .70387 1.5266 126.7 21.8 .928 151
2023 03 27 16  15 35 24.578   +23 06 03.88  .70374 1.5265 126.7 21.8 .953 152
2023 03 27 17  15 35 28.785   +23 07 09.38  .70361 1.5264 126.7 21.8 .979 152
2023 03 27 18  15 35 32.989   +23 08 14.87  .70348 1.5264 126.7 21.8 1.01 152
2023 03 27 19  15 35 37.190   +23 09 20.34  .70335 1.5263 126.7 21.8 1.03 153
2023 03 27 20  15 35 41.387   +23 10 25.80  .70322 1.5262 126.7 21.8 1.06 153
2023 03 27 21  15 35 45.582   +23 11 31.24  .70308 1.5261 126.7 21.8 1.09 153
2023 03 27 22  15 35 49.773   +23 12 36.66  .70295 1.5260 126.7 21.8 1.12 154
2023 03 27 23  15 35 53.961   +23 13 42.06  .70283 1.5259 126.7 21.8 1.14 154
2023 03 28 00  15 35 58.146   +23 14 47.45  .70270 1.5258 126.7 21.8 1.17 154
2023 03 28 01  15 36 02.328   +23 15 52.82  .70257 1.5257 126.7 21.8 1.20 154
2023 03 28 02  15 36 06.506   +23 16 58.18  .70244 1.5257 126.7 21.8 1.23 155
2023 03 28 03  15 36 10.682   +23 18 03.52  .70231 1.5256 126.7 21.8 1.26 155
2023 03 28 04  15 36 14.854   +23 19 08.84  .70218 1.5255 126.7 21.8 1.29 155
2023 03 28 05  15 36 19.023   +23 20 14.14  .70205 1.5254 126.7 21.8 1.32 156
2023 03 28 06  15 36 23.189   +23 21 19.42  .70192 1.5253 126.7 21.8 1.35 156
2023 03 28 07  15 36 27.352   +23 22 24.69  .70180 1.5252 126.7 21.8 1.39 156
2023 03 28 08  15 36 31.512   +23 23 29.94  .70167 1.5251 126.7 21.8 1.42 156